H1 CPF 2 NER 2021 6 8 9 159 01 glonass135 H2 1600801 9135 41330 2021 6 8 0 0 0 2021 6 11 23 45 0 900 1 1 0 0 0 1 H9 10 0 59373 0.00000 0 -11560618.008 22693854.801 -1733036.208 10 0 59373 900.00000 0 -11386753.766 22798295.082 1500928.302 10 0 59373 1800.00000 0 -11051993.342 22524929.951 4705802.862 10 0 59373 2700.00000 0 -10611932.175 21860390.958 7819468.179 10 0 59373 3600.00000 0 -10124628.657 20804675.238 10781567.278 10 0 59373 4500.00000 0 -9647961.089 19371297.294 13534669.908 10 0 59373 5400.00000 0 -9237003.431 17586892.008 16025380.889 10 0 59373 6300.00000 0 -8941530.298 15490284.319 18205371.377 10 0 59373 7200.00000 0 -8803756.236 13131063.337 20032313.373 10 0 59373 8100.00000 0 -8856404.537 10567719.114 21470699.817 10 0 59373 9000.00000 0 -9121187.196 7865418.260 22492534.691 10 0 59373 9900.00000 0 -9607760.503 5093509.715 23077879.897 10 0 59373 10800.00000 0 -10313201.047 2322863.023 23215248.341 10 0 59373 11700.00000 0 -11222025.365 -376851.499 22901835.342 10 0 59373 12600.00000 0 -12306753.744 -2939828.606 22143583.384 10 0 59373 13500.00000 0 -13528996.075 -5306630.037 20955078.214 10 0 59373 14400.00000 0 -14841015.643 -7426419.026 19359277.355 10 0 59373 15300.00000 0 -16187706.544 -9258834.667 17387075.242 10 0 59373 16200.00000 0 -17508902.683 -10775428.219 15076712.362 10 0 59373 17100.00000 0 -18741921.991 -11960601.471 12473038.867 10 0 59373 18000.00000 0 -19824238.939 -12812007.932 9626646.254 10 0 59373 18900.00000 0 -20696172.544 -13340400.254 6592883.569 10 0 59373 19800.00000 0 -21303475.855 -13568930.653 3430777.164 10 0 59373 20700.00000 0 -21599716.605 -13531934.378 201875.486 10 0 59373 21600.00000 0 -21548347.278 -13273248.407 -3030957.919 10 0 59373 22500.00000 0 -21124375.868 -12844137.570 -6204778.678 10 0 59373 23400.00000 0 -20315565.528 -12300917.061 -9257797.797 10 0 59373 24300.00000 0 -19123111.447 -11702373.445 -12130594.510 10 0 59373 25200.00000 0 -17561765.629 -11107094.730 -14767281.006 10 0 59373 26100.00000 0 -15659403.906 -10570823.814 -17116595.390 10 0 59373 27000.00000 0 -13456053.249 -10143948.326 -19132901.020 10 0 59373 27900.00000 0 -11002420.253 -9869233.708 -20777072.657 10 0 59373 28800.00000 0 -8357982.773 -9779895.624 -22017252.300 10 0 59373 29700.00000 0 -5588724.706 -9898093.017 -22829460.627 10 0 59373 30600.00000 0 -2764608.587 -10233904.988 -23198053.028 10 0 59373 31500.00000 0 43108.664 -10784833.992 -23116012.302 10 0 59373 32400.00000 0 2764605.577 -11535855.563 -22585073.437 10 0 59373 33300.00000 0 5334158.770 -12460011.791 -21615679.027 10 0 59373 34200.00000 0 7692628.737 -13519522.995 -20226766.991 10 0 59373 35100.00000 0 9789666.932 -14667370.459 -18445395.379 10 0 59373 36000.00000 0 11585554.042 -15849283.611 -16306211.878 10 0 59373 36900.00000 0 13052594.749 -17006048.135 -13850778.479 10 0 59373 37800.00000 0 14176012.792 -18076038.335 -11126764.379 10 0 59373 38700.00000 0 14954310.899 -18997867.710 -8187022.490 10 0 59373 39600.00000 0 15399082.216 -19713046.766 -5088567.251 10 0 59373 40500.00000 0 15534282.712 -20168536.806 -1891473.190 10 0 59373 41400.00000 0 15394996.321 -20319092.681 1342284.838 10 0 59373 42300.00000 0 15025745.560 -20129296.212 4550027.476 10 0 59373 43200.00000 0 14478419.308 -19575194.857 7669579.994 10 0 59373 44100.00000 0 13809905.232 -18645476.493 10640471.631 10 0 59373 45000.00000 0 13079526.579 -17342130.529 13405102.164 10 0 59373 45900.00000 0 12346391.166 -15680566.822 15909853.527 10 0 59373 46800.00000 0 11666763.928 -13689186.325 18106125.352 10 0 59373 47700.00000 0 11091573.387 -11408420.171 19951274.698 10 0 59373 48600.00000 0 10664156.773 -8889275.855 21409442.186 10 0 59373 49500.00000 0 10418338.587 -6191449.479 22452248.875 10 0 59373 50400.00000 0 10376923.560 -3381081.145 23059350.482 10 0 59373 51300.00000 0 10550667.765 -528245.256 23218838.259 10 0 59373 52200.00000 0 10937771.827 2295721.462 22927478.507 10 0 59373 53100.00000 0 11523918.444 5020944.335 22190785.584 10 0 59373 54000.00000 0 12282853.789 7581675.374 21022926.278 10 0 59373 54900.00000 0 13177489.590 9918788.143 19446456.441 10 0 59373 55800.00000 0 14161480.681 11981999.409 17491893.959 10 0 59373 56700.00000 0 15181212.686 13731725.284 15197135.286 10 0 59373 57600.00000 0 16178116.838 15140494.453 12606725.839 10 0 59373 58500.00000 0 17091214.668 16193859.322 9770997.751 10 0 59373 59400.00000 0 17859785.115 16890766.956 6745091.274 10 0 59373 60300.00000 0 18426040.890 17243374.405 3587878.763 10 0 59373 61200.00000 0 18737700.049 17276316.490 360812.617 10 0 59373 62100.00000 0 18750342.893 17025457.586 -2873279.721 10 0 59373 63000.00000 0 18429453.119 16536180.982 -6051429.251 10 0 59373 63900.00000 0 17752055.586 15861289.229 -9111762.076 10 0 59373 64800.00000 0 16707880.222 15058605.591 -11994713.934 10 0 59373 65700.00000 0 15300001.839 14188379.379 -14644197.834 10 0 59373 66600.00000 0 13544928.196 13310606.224 -17008701.043 10 0 59373 67500.00000 0 11472132.055 12482377.631 -19042289.518 10 0 59373 68400.00000 0 9123046.710 11755372.570 -20705500.038 10 0 59373 69300.00000 0 6549567.089 11173597.373 -21966102.821 10 0 59373 70200.00000 0 3812119.252 10771469.217 -22799720.363 10 0 59373 71100.00000 0 977378.884 10572323.505 -23190291.306 10 0 59373 72000.00000 0 -1884266.051 10587407.258 -23130371.283 10 0 59373 72900.00000 0 -4701403.221 10815399.879 -22621265.977 10 0 59373 73800.00000 0 -7404323.221 11242480.397 -21672994.786 10 0 59373 74700.00000 0 -9927673.675 11842937.344 -20304086.668 10 0 59373 75600.00000 0 -12212931.124 12580294.760 -18541212.750 10 0 59373 76500.00000 0 -14210589.393 13408906.347 -16418663.208 10 0 59373 77400.00000 0 -15881974.970 14275950.372 -13977678.780 10 0 59373 78300.00000 0 -17200615.608 15123741.274 -11265649.772 10 0 59373 79200.00000 0 -18153106.798 15892260.846 -8335197.912 10 0 59373 80100.00000 0 -18739441.594 16521802.679 -5243158.580 10 0 59373 81000.00000 0 -18972791.481 16955618.887 -2049482.780 10 0 59373 81900.00000 0 -18878748.770 17142457.966 1183920.251 10 0 59373 82800.00000 0 -18494063.215 17038887.159 4394377.636 10 0 59373 83700.00000 0 -17864926.634 16611301.603 7519661.870 10 0 59373 84600.00000 0 -17044877.987 15837535.545 10499191.185 10 0 59373 85500.00000 0 -16092417.104 14708007.432 13275198.258 10 0 59374 0.00000 0 -15068427.305 13226350.115 15793844.993 10 0 59374 900.00000 0 -14033515.142 11409498.173 18006262.458 10 0 59374 1800.00000 0 -13045378.228 9287228.678 19869495.488 10 0 59374 2700.00000 0 -12156312.480 6901171.046 21347334.960 10 0 59374 3600.00000 0 -11410961.829 4303327.407 22411021.331 10 0 59374 4500.00000 0 -10844405.799 1554162.259 23039806.130 10 0 59374 5400.00000 0 -10480664.727 -1279660.420 23221360.583 10 0 59374 6300.00000 0 -10331685.824 -4127800.383 22952023.180 10 0 59374 7200.00000 0 -10396853.079 -6918921.133 22236880.909 10 0 59374 8100.00000 0 -10663042.312 -9583416.615 21089681.868 10 0 59374 9000.00000 0 -11105219.883 -12056072.211 19532580.009 10 0 59374 9900.00000 0 -11687560.759 -14278549.750 17595715.943 10 0 59374 10800.00000 0 -12365039.679 -16201593.391 15316640.866 10 0 59374 11700.00000 0 -13085428.987 -17786864.369 12739593.781 10 0 59374 12600.00000 0 -13791619.176 -19008327.756 9914645.359 10 0 59374 13500.00000 0 -14424164.106 -19853133.027 6896724.596 10 0 59374 14400.00000 0 -14923942.875 -20321951.401 3744547.081 10 0 59374 15300.00000 0 -15234824.888 -20428755.825 519466.136 10 0 59374 16200.00000 0 -15306224.212 -20200053.204 -2715730.139 10 0 59374 17100.00000 0 -15095433.697 -19673601.902 -5898051.526 10 0 59374 18000.00000 0 -14569638.644 -18896669.520 -8965542.758 10 0 59374 18900.00000 0 -13707523.412 -17923905.681 -11858499.674 10 0 59374 19800.00000 0 -12500401.815 -16814920.968 -14520639.685 10 0 59374 20700.00000 0 -10952822.593 -15631675.544 -16900202.678 10 0 59374 21600.00000 0 -9082623.696 -14435788.849 -18950960.409 10 0 59374 22500.00000 0 -6920432.606 -13285884.736 -20633114.522 10 0 59374 23400.00000 0 -4508633.469 -12235084.485 -21914065.805 10 0 59374 24300.00000 0 -1899844.177 -11328753.299 -22769040.349 10 0 59374 25200.00000 0 845033.028 -10602594.741 -23181561.203 10 0 59374 26100.00000 0 3659106.116 -10081172.416 -23143757.362 10 0 59374 27000.00000 0 6472037.699 -9776919.919 -22656505.127 10 0 59374 27900.00000 0 9212733.937 -9689679.278 -21729400.093 10 0 59374 28800.00000 0 11812066.739 -9806785.946 -20380561.151 10 0 59374 29700.00000 0 14205517.118 -10103695.414 -18636270.964 10 0 59374 30600.00000 0 16335631.044 -10545124.008 -16530460.257 10 0 59374 31500.00000 0 18154186.938 -11086655.033 -14104046.162 10 0 59374 32400.00000 0 19623986.147 -11676742.100 -11404137.383 10 0 59374 33300.00000 0 20720193.328 -12259025.044 -8483121.396 10 0 59374 34200.00000 0 21431172.258 -12774860.819 -5397651.145 10 0 59374 35100.00000 0 21758783.564 -13165962.865 -2207550.518 10 0 59374 36000.00000 0 21718133.130 -13377037.891 1025340.575 10 0 59374 36900.00000 0 21336782.627 -13358309.111 4238359.442 10 0 59374 37800.00000 0 20653456.026 -13067819.705 7369229.354 10 0 59374 38700.00000 0 19716296.741 -12473419.305 10357260.829 10 0 59374 39600.00000 0 18580748.741 -11554349.604 13144522.375 10 0 59374 40500.00000 0 17307150.507 -10302361.700 15676958.447 10 0 59374 41400.00000 0 15958142.531 -8722317.281 17905433.379 10 0 59374 42300.00000 0 14595996.793 -6832247.175 19786681.390 10 0 59374 43200.00000 0 13279979.757 -4662863.213 21284144.666 10 0 59374 44100.00000 0 12063858.978 -2256542.001 22368683.637 10 0 59374 45000.00000 0 10993657.482 334178.892 23019145.787 10 0 59374 45900.00000 0 10105749.741 3048531.636 23222782.042 10 0 59374 46800.00000 0 9425378.953 5819797.301 22975502.431 10 0 59374 47700.00000 0 8965657.903 8577840.300 22281965.583 10 0 59374 48600.00000 0 8727095.595 11251794.207 21155499.620 10 0 59374 49500.00000 0 8697669.954 13772788.362 19617855.066 10 0 59374 50400.00000 0 8853444.105 16076602.437 17698793.511 10 0 59374 51300.00000 0 9159700.809 18106138.786 15435518.983 10 0 59374 52200.00000 0 9572547.679 19813609.466 12871962.013 10 0 59374 53100.00000 0 10040925.724 21162346.307 10057929.624 10 0 59374 54000.00000 0 10508936.257 22128157.914 7048137.254 10 0 59374 54900.00000 0 10918387.408 22700176.416 3901141.320 10 0 59374 55800.00000 0 11211451.655 22881158.073 678193.599 10 0 59374 56700.00000 0 11333320.774 22687225.155 -2557959.652 10 0 59374 57600.00000 0 11234744.354 22147060.238 -5744309.460 10 0 59374 58500.00000 0 10874342.926 21300587.481 -8818821.551 10 0 59374 59400.00000 0 10220596.259 20197197.417 -11721654.080 10 0 59374 60300.00000 0 9253421.306 18893591.249 -14396330.871 10 0 59374 61200.00000 0 7965271.975 17451336.774 -16790846.237 10 0 59374 62100.00000 0 6361713.370 15934240.128 -18858679.341 10 0 59374 63000.00000 0 4461445.600 14405645.004 -20559698.093 10 0 59374 63900.00000 0 2295775.802 12925773.661 -21860935.088 10 0 59374 64800.00000 0 -92439.788 11549221.725 -22737221.067 10 0 59374 65700.00000 0 -2650339.597 10322711.733 -23171664.360 10 0 59374 66600.00000 0 -5317021.883 9283199.018 -23155967.967 10 0 59374 67500.00000 0 -8025849.620 8456408.224 -22690579.166 10 0 59374 68400.00000 0 -10706999.442 7855860.363 -21784669.768 10 0 59374 69300.00000 0 -13290149.080 7482429.618 -20455948.242 10 0 59374 70200.00000 0 -15707192.309 7324446.786 -18730308.030 10 0 59374 71100.00000 0 -17894869.470 7358343.449 -16641319.287 10 0 59374 72000.00000 0 -19797205.210 7549808.495 -14229574.098 10 0 59374 72900.00000 0 -21367653.235 7855407.264 -11541897.868 10 0 59374 73800.00000 0 -22570860.028 8224594.475 -8630441.929 10 0 59374 74700.00000 0 -23383975.195 8602035.713 -5551674.767 10 0 59374 75600.00000 0 -23797454.932 8930139.459 -2365291.021 10 0 59374 76500.00000 0 -23815326.093 9151692.901 866940.970 10 0 59374 77400.00000 0 -23454900.608 9212490.453 4082371.029 10 0 59374 78300.00000 0 -22745952.880 9063844.168 7218675.663 10 0 59374 79200.00000 0 -21729394.984 8664870.179 10215060.231 10 0 59374 80100.00000 0 -20455505.362 7984454.562 13013431.700 10 0 59374 81000.00000 0 -18981785.141 7002815.410 15559519.687 10 0 59374 81900.00000 0 -17370531.625 5712594.550 17803924.503 10 0 59374 82800.00000 0 -15686230.202 4119431.990 19703072.192 10 0 59374 83700.00000 0 -13992873.287 2241997.525 21220058.520 10 0 59374 84600.00000 0 -12351317.937 111476.395 22325365.882 10 0 59374 85500.00000 0 -10816792.143 -2229471.362 22997439.361 10 0 59375 0.00000 0 -9436653.582 -4728236.501 23223110.869 10 0 59375 900.00000 0 -8248494.400 -7324209.834 22997862.841 10 0 59375 1800.00000 0 -7278670.430 -9951075.159 22325926.047 10 0 59375 2700.00000 0 -6541317.803 -12539352.881 21220208.713 10 0 59375 3600.00000 0 -6037896.528 -15019089.278 19702057.626 10 0 59375 4500.00000 0 -5757281.749 -17322580.346 17800854.670 10 0 59375 5400.00000 0 -5676398.438 -19387017.231 15553455.638 10 0 59375 6300.00000 0 -5761373.208 -21156942.964 13003481.177 10 0 59375 7200.00000 0 -5969154.740 -22586417.462 10200472.921 10 0 59375 8100.00000 0 -6249534.251 -23640799.811 7198930.725 10 0 59375 9000.00000 0 -6547480.158 -24298072.479 4057249.561 10 0 59375 9900.00000 0 -6805687.366 -24549651.312 836577.160 10 0 59375 10800.00000 0 -6967232.179 -24400646.920 -2400384.760 10 0 59375 11700.00000 0 -6978218.949 -23869566.330 -5590611.355 10 0 59375 12600.00000 0 -6790304.922 -22987467.706 -8671992.391 10 0 59375 13500.00000 0 -6362994.705 -21796604.325 -11584551.525 10 0 59375 14400.00000 0 -5665605.795 -20348615.795 -14271622.249 10 0 59375 15300.00000 0 -4678820.744 -18702343.754 -16680956.550 10 0 59375 16200.00000 0 -3395759.335 -16921365.092 -18765744.110 10 0 59375 17100.00000 0 -1822524.741 -15071347.429 -20485521.977 10 0 59375 18000.00000 0 21799.840 -13217338.730 -21806957.071 10 0 59375 18900.00000 0 2105704.283 -11421105.174 -22704486.853 10 0 59375 19800.00000 0 4386331.442 -9738628.793 -23160806.489 10 0 59375 20700.00000 0 6811038.739 -8217869.184 -23167194.008 10 0 59375 21600.00000 0 9319376.458 -6896881.910 -22723668.166 10 0 59375 22500.00000 0 11845400.490 -5802370.916 -21838976.991 10 0 59375 23400.00000 0 14320223.516 -4948733.839 -20530418.054 10 0 59375 24300.00000 0 16674699.022 -4337638.281 -18823494.661 10 0 59375 25200.00000 0 18842127.153 -3958144.917 -16751415.016 10 0 59375 26100.00000 0 20760870.612 -3787370.557 -14354444.334 10 0 59375 27000.00000 0 22376772.642 -3791661.777 -11679122.424 10 0 59375 27900.00000 0 23645277.420 -3928228.590 -8777361.740 10 0 59375 28800.00000 0 24533165.376 -4147168.564 -5705443.155 10 0 59375 29700.00000 0 25019832.000 -4393795.590 -2522928.576 10 0 59375 30600.00000 0 25098057.588 -4611174.803 708488.938 10 0 59375 31500.00000 0 24774236.353 -4742756.733 3926175.519 10 0 59375 32400.00000 0 24068055.874 -4734999.494 7067764.652 10 0 59375 33300.00000 0 23011640.543 -4539868.423 10072360.090 10 0 59375 34200.00000 0 21648194.901 -4117107.648 12881710.513 10 0 59375 35100.00000 0 20030203.532 -3436187.538 15441333.585 10 0 59375 36000.00000 0 18217262.408 -2477845.468 17701568.032 10 0 59375 36900.00000 0 16273631.935 -1235154.212 19618533.715 10 0 59375 37800.00000 0 14265613.334 285928.110 21154981.503 10 0 59375 38700.00000 0 12258857.225 2066551.222 22281016.818 10 0 59375 39600.00000 0 10315716.179 4075511.033 22974682.957 10 0 59375 40500.00000 0 8492751.055 6270312.679 23222392.958 10 0 59375 41400.00000 0 6838494.651 8598715.985 23019201.410 10 0 59375 42300.00000 0 5391565.676 11000700.788 22368910.472 10 0 59375 43200.00000 0 4179211.511 13410772.059 21284007.370 10 0 59375 44100.00000 0 3216340.561 15760510.243 19785433.657 10 0 59375 45000.00000 0 2505084.716 17981261.503 17902189.693 10 0 59375 45900.00000 0 2034910.264 20006856.318 15670780.948 10 0 59375 46800.00000 0 1783272.604 21776243.078 13134515.880 10 0 59375 47700.00000 0 1716787.122 23235926.295 10342668.263 10 0 59375 48600.00000 0 1792866.618 24342106.780 7349519.760 10 0 59375 49500.00000 0 1961755.587 25062433.345 4213301.195 10 0 59375 50400.00000 0 2168874.601 25377291.605 995053.487 10 0 59375 51300.00000 0 2357374.463 25280575.020 -2242568.950 10 0 59375 52200.00000 0 2470790.612 24779905.262 -5436528.118 10 0 59375 53100.00000 0 2455683.843 23896292.417 -8524640.416 10 0 59375 54000.00000 0 2264153.892 22663249.521 -11446797.406 10 0 59375 54900.00000 0 1856117.898 21125399.199 -14146144.425 10 0 59375 55800.00000 0 1201255.995 19336631.842 -16570193.050 10 0 59375 56700.00000 0 280540.635 17357893.659 -18671845.155 10 0 59375 57600.00000 0 -912715.796 15254698.472 -20410308.353 10 0 59375 58500.00000 0 -2372339.804 13094468.428 -21751885.082 10 0 59375 59400.00000 0 -4079324.341 10943815.588 -22670620.488 10 0 59375 60300.00000 0 -6002404.184 8865878.227 -23148797.308 10 0 59375 61200.00000 0 -8099155.071 6917822.927 -23177269.057 10 0 59375 62100.00000 0 -10317570.701 5148615.955 -22755626.115 10 0 59375 63000.00000 0 -12598051.932 3597155.661 -21892192.507 10 0 59375 63900.00000 0 -14875725.301 2290842.302 -20603854.302 10 0 59375 64800.00000 0 -17082994.640 1244643.059 -18915723.658 10 0 59375 65700.00000 0 -19152219.997 460689.289 -16860645.462 10 0 59375 66600.00000 0 -21018412.783 -71579.090 -14478556.365 10 0 59375 67500.00000 0 -22621835.634 -374730.049 -11815708.653 10 0 59375 68400.00000 0 -23910399.342 -482146.965 -8923773.791 10 0 59375 69300.00000 0 -24841757.609 -436378.611 -5858842.807 10 0 59375 70200.00000 0 -25385012.918 -287101.938 -2680342.556 10 0 59375 71100.00000 0 -25521962.887 -88784.075 550111.568 10 0 59375 72000.00000 0 -25247835.462 101857.590 3769904.481 10 0 59375 72900.00000 0 -24571482.537 228489.990 6916629.177 10 0 59375 73800.00000 0 -23515024.005 237782.436 9929290.408 10 0 59375 74700.00000 0 -22112957.051 81897.703 12749481.191 10 0 59375 75600.00000 0 -20410767.635 -279249.045 15322509.816 10 0 59375 76500.00000 0 -18463101.711 -876059.005 17598455.902 10 0 59375 77400.00000 0 -16331571.971 -1727728.029 19533135.401 10 0 59375 78300.00000 0 -14082290.880 -2841199.398 21088956.284 10 0 59375 79200.00000 0 -11783232.074 -4210636.293 22235648.647 10 0 59375 80100.00000 0 -9501529.312 -5817437.654 22950855.253 10 0 59375 81000.00000 0 -7300824.710 -7630798.577 23220571.117 10 0 59375 81900.00000 0 -5238775.981 -9608793.830 23039423.405 10 0 59375 82800.00000 0 -3364826.052 -11699941.139 22410785.747 10 0 59375 83700.00000 0 -1718327.513 -13845180.876 21346724.069 10 0 59375 84600.00000 0 -327099.888 -15980191.143 19867774.078 10 0 59375 85500.00000 0 793520.149 -18037942.778 18002553.688 10 0 59376 0.00000 0 1641096.041 -19951388.395 15787216.902 10 0 59376 900.00000 0 2225958.579 -21656173.283 13264758.391 10 0 59376 1800.00000 0 2570529.268 -23093254.904 10484182.383 10 0 59376 2700.00000 0 2708127.820 -24211319.753 7499550.364 10 0 59376 3600.00000 0 2681315.607 -24968896.627 4368926.831 10 0 59376 4500.00000 0 2539845.024 -25336075.435 1153243.546 10 0 59376 5400.00000 0 2338302.951 -25295758.836 -2084894.878 10 0 59376 6300.00000 0 2133549.255 -24844392.999 -5282439.894 10 0 59376 7200.00000 0 1982060.297 -23992146.149 -8377137.259 10 0 59376 8100.00000 0 1937291.575 -22762527.128 -11308749.243 10 0 59376 9000.00000 0 2047172.739 -21191460.106 -14020235.886 10 0 59376 9900.00000 0 2351842.411 -19325854.803 -16458871.197 10 0 59376 10800.00000 0 2881719.786 -17221732.968 -18577271.980 10 0 59376 11700.00000 0 3655995.406 -14941990.490 -20334318.966 10 0 59376 12600.00000 0 4681605.342 -12553889.713 -21695952.369 10 0 59376 13500.00000 0 5952732.339 -10126387.466 -22635826.913 10 0 59376 14400.00000 0 7450855.049 -7727410.685 -23135814.367 10 0 59376 15300.00000 0 9145343.263 -5421193.267 -23186344.743 10 0 59376 16200.00000 0 10994574.135 -3265784.572 -22786580.601 10 0 59376 17100.00000 0 12947522.706 -1310832.331 -21944422.087 10 0 59376 18000.00000 0 14945760.235 404269.093 -20676343.468 10 0 59376 18900.00000 0 16925777.065 1851789.714 -19007065.063 10 0 59376 19800.00000 0 18821533.408 3016577.444 -16969067.330 10 0 59376 20700.00000 0 20567131.946 3896437.971 -14601956.840 10 0 59376 21600.00000 0 22099501.288 4501967.236 -11951696.404 10 0 59376 22500.00000 0 23360978.821 4855845.389 -9069714.113 10 0 59376 23400.00000 0 24301685.657 4991623.385 -6011908.386 10 0 59376 24300.00000 0 24881594.995 4952054.501 -2837567.906 10 0 59376 25200.00000 0 25072207.890 4787041.866 391772.964 10 0 59376 26100.00000 0 24857766.646 4551288.995 3613521.414 10 0 59376 27000.00000 0 24235955.237 4301752.686 6765233.459 10 0 59376 27900.00000 0 23218057.386 4095005.781 9785818.245 10 0 59376 28800.00000 0 21828565.466 3984621.023 12616716.330 10 0 59376 29700.00000 0 20104256.075 4018686.323 15203029.554 10 0 59376 30600.00000 0 18092770.258 4237556.313 17494581.026 10 0 59376 31500.00000 0 15850756.863 4671935.126 19446885.026 10 0 59376 32400.00000 0 13441655.502 5341371.717 21022008.474 10 0 59376 33300.00000 0 10933210.486 6253231.815 22189307.591 10 0 59376 34200.00000 0 8394818.282 7402190.914 22926025.634 10 0 59376 35100.00000 0 5894817.868 8770271.023 23217740.184 10 0 59376 36000.00000 0 3497835.795 10327421.452 23058651.097 10 0 59376 36900.00000 0 1262295.721 12032621.072 22451703.104 10 0 59376 37800.00000 0 -761804.541 13835457.811 21408539.972 10 0 59376 38700.00000 0 -2534756.369 15678121.015 19949290.238 10 0 59376 39600.00000 0 -4028566.526 17497724.648 18102187.623 10 0 59376 40500.00000 0 -5227886.906 19228865.115 15903032.437 10 0 59376 41400.00000 0 -6130409.076 20806307.123 13394503.398 10 0 59376 42300.00000 0 -6746707.217 22167684.940 10625332.474 10 0 59376 43200.00000 0 -7099536.413 23256105.296 7649358.257 10 0 59376 44100.00000 0 -7222616.331 24022541.749 4524476.090 10 0 59376 45000.00000 0 -7158952.317 24427918.710 1311505.728 10 0 59376 45900.00000 0 -6958765.837 24444796.260 -1927000.868 10 0 59376 46800.00000 0 -6677123.054 24058583.638 -5127987.403 10 0 59376 47700.00000 0 -6371363.348 23268229.337 -8229131.677 10 0 59376 48600.00000 0 -6098438.219 22086358.078 -11170069.195 10 0 59376 49500.00000 0 -5912274.810 20538848.547 -13893577.003 10 0 59376 50400.00000 0 -5861277.069 18663869.727 -16346693.599 10 0 59376 51300.00000 0 -5986071.458 16510416.599 -18481752.511 10 0 59376 52200.00000 0 -6317593.395 14136407.154 -20257309.106 10 0 59376 53100.00000 0 -6875595.777 11606421.075 -21638942.632 10 0 59376 54000.00000 0 -7667642.747 8989175.142 -22599918.387 10 0 59376 54900.00000 0 -8688631.070 6354841.073 -23121697.896 10 0 59376 55800.00000 0 -9920859.070 3772317.713 -23194288.102 10 0 59376 56700.00000 0 -11334639.958 1306570.738 -22816423.853 10 0 59376 57600.00000 0 -12889433.624 -983850.229 -21995581.155 10 0 59376 58500.00000 0 -14535449.239 -3049015.009 -20747821.834 10 0 59376 59400.00000 0 -16215651.564 -4849446.702 -19097473.326 10 0 59376 60300.00000 0 -17868087.147 -6357511.543 -17076650.259 10 0 59376 61200.00000 0 -19428433.310 -7558308.839 -14724627.391 10 0 59376 62100.00000 0 -20832663.725 -8450025.985 -12087076.068 10 0 59376 63000.00000 0 -22019719.528 -9043745.709 -9215178.829 10 0 59376 63900.00000 0 -22934074.647 -9362715.365 -6164639.142 10 0 59376 64800.00000 0 -23528088.426 -9441110.473 -2994605.095 10 0 59376 65700.00000 0 -23764047.429 -9322345.586 233472.488 10 0 59376 66600.00000 0 -23615811.078 -9057004.349 3457025.666 10 0 59376 67500.00000 0 -23069992.298 -8700476.389 6613576.126 10 0 59376 68400.00000 0 -22126623.546 -8310400.877 9641940.112 10 0 59376 69300.00000 0 -20799279.955 -7944024.480 12483408.424 10 0 59376 70200.00000 0 -19114653.858 -7655585.064 15082879.096 10 0 59376 71100.00000 0 -17111597.586 -7493831.324 17389921.225 10 0 59376 72000.00000 0 -14839673.567 -7499782.827 19359749.690 10 0 59376 72900.00000 0 -12357271.009 -7704825.013 20954092.317 10 0 59376 73800.00000 0 -9729366.356 -8129219.742 22141933.027 10 0 59376 74700.00000 0 -7025019.559 -8781094.753 22900116.727 10 0 59376 75600.00000 0 -4314709.003 -9655955.560 23213804.273 10 0 59376 76500.00000 0 -1667614.753 -10736741.646 23076768.511 10 0 59376 77400.00000 0 851037.842 -11994426.122 22491525.170 10 0 59376 78300.00000 0 3182464.577 -13389135.389 21469295.409 10 0 59376 79200.00000 0 5276535.969 -14871743.484 20029799.825 10 0 59376 80100.00000 0 7093626.113 -16385875.659 18200886.887 10 0 59376 81000.00000 0 8606019.941 -17870238.296 16018001.931 10 0 59376 81900.00000 0 9798820.268 -19261178.069 13523505.996 10 0 59376 82800.00000 0 10670316.707 -20495363.043 10765856.958 10 0 59376 83700.00000 0 11231801.247 -21512472.743 7798668.356 10 0 59376 84600.00000 0 11506838.635 -22257783.294 4679664.009 10 0 59376 85500.00000 0 11530022.891 -22684537.672 1469549.091 99